Location: Taupo
(38.6830°S, 176.0830°E)
Time: 16:15:20
(UTC+13:00)

Meteor 1-26 Rocket - Pass Details

Date: 24 January 2019
Orbit: 823 x 912 km, 81.3° (Epoch: 20 February)

Event Time Altitude Azimuth Distance (km) Brightness Sun altitude
Exits shadow 22:56:00 40° 5° (N) 1,294 4.7 -22.1°
Maximum altitude 22:58:13 77° 83° (E) 912 4.2 -22.3°
Drops below altitude 10° 23:04:00 10° 168° (SSE) 2,535 7.2 -23.0°
Sets 23:06:25 0° 169° (S) 3,465 8.0 -23.3°
